<?xml version='1.0' encoding='UTF-8'?>
<gpx xmlns="http://www.topografix.com/GPX/1/1" creator="www.balnam.be" version="1.1" xmlns:xsi="http://www.w3.org/2001/XMLSchema-instance" xsi:schemaLocation="http://www.topografix.com/GPX/1/1 http://www.topografix.com/GPX/1/1/gpx.xsd">
<trk>
<name>hmmbw1</name>
<cmt>s</cmt>
<desc>Beauwelz Chemin n°1 </desc>
<link href="https://chemins.be/beauwelz/chemin/1"/><trkseg>
<trkpt lat="49.994598" lon="4.169980"><time>2026-05-03T09:16:35Z</time></trkpt>
<trkpt lat="49.993512" lon="4.170724"><time>2026-05-03T09:26:35Z</time></trkpt>
<trkpt lat="49.991572" lon="4.173127"><time>2026-05-03T09:36:35Z</time></trkpt>
<trkpt lat="49.990966" lon="4.175251"><time>2026-05-03T09:46:35Z</time></trkpt>
</trkseg>
</trk>
<trk>
<name>hmmbw10</name>
<cmt>v</cmt>
<desc>Beauwelz Chemin n°10 La Haye au charme</desc>
<link href="https://chemins.be/beauwelz/chemin/10"/><trkseg>
<trkpt lat="50.011762" lon="4.148996"><time>2026-05-03T09:16:35Z</time></trkpt>
<trkpt lat="50.012033" lon="4.148031"><time>2026-05-03T09:26:35Z</time></trkpt>
<trkpt lat="50.013931" lon="4.146107"><time>2026-05-03T09:36:35Z</time></trkpt>
<trkpt lat="50.013881" lon="4.145492"><time>2026-05-03T09:46:35Z</time></trkpt>
<trkpt lat="50.014239" lon="4.145463"><time>2026-05-03T09:56:35Z</time></trkpt>
</trkseg></trk>
<trk>
<name>hmmbw10</name>
<cmt>q</cmt>
<desc>Beauwelz Chemin n°10 La Haye au charme</desc>
<link href="https://chemins.be/beauwelz/chemin/10"/><trkseg>
<trkpt lat="50.014239" lon="4.145463"><time>2026-05-03T09:56:35Z</time></trkpt>
<trkpt lat="50.015797" lon="4.147716"><time>2026-05-03T10:06:35Z</time></trkpt>
<trkpt lat="50.016262" lon="4.149569"><time>2026-05-03T10:16:35Z</time></trkpt>
<trkpt lat="50.017075" lon="4.149275"><time>2026-05-03T10:26:35Z</time></trkpt>
</trkseg>
</trk>
<trk>
<name>hmmbw11</name>
<cmt>q</cmt>
<desc>Beauwelz Chemin n°11 </desc>
<link href="https://chemins.be/beauwelz/chemin/11"/><trkseg>
<trkpt lat="50.012999" lon="4.166371"><time>2026-05-03T09:16:35Z</time></trkpt>
<trkpt lat="50.012066" lon="4.165975"><time>2026-05-03T09:26:35Z</time></trkpt>
<trkpt lat="50.011137" lon="4.165732"><time>2026-05-03T09:36:35Z</time></trkpt>
</trkseg>
</trk>
<trk>
<name>hmmbw13</name>
<cmt>v</cmt>
<desc>Beauwelz Chemin n°13 Les Préaux</desc>
<link href="https://chemins.be/beauwelz/chemin/13"/><trkseg>
<trkpt lat="50.014027" lon="4.167218"><time>2026-05-03T09:16:35Z</time></trkpt>
<trkpt lat="50.014478" lon="4.169146"><time>2026-05-03T09:26:35Z</time></trkpt>
<trkpt lat="50.014931" lon="4.170748"><time>2026-05-03T09:36:35Z</time></trkpt>
</trkseg>
</trk>
<trk>
<name>hmmbw14</name>
<cmt>v</cmt>
<desc>Beauwelz Chemin n°14 </desc>
<link href="https://chemins.be/beauwelz/chemin/14"/><trkseg>
<trkpt lat="50.011358" lon="4.166290"><time>2026-05-03T09:16:35Z</time></trkpt>
<trkpt lat="50.011211" lon="4.167005"><time>2026-05-03T09:26:35Z</time></trkpt>
<trkpt lat="50.011119" lon="4.168349"><time>2026-05-03T09:36:35Z</time></trkpt>
</trkseg>
</trk>
<trk>
<name>hmmbw18</name>
<cmt>r</cmt>
<desc>Beauwelz Chemin n°18 </desc>
<link href="https://chemins.be/beauwelz/chemin/18"/><trkseg>
<trkpt lat="50.002940" lon="4.163017"><time>2026-05-03T09:16:35Z</time></trkpt>
<trkpt lat="50.002816" lon="4.163783"><time>2026-05-03T09:26:35Z</time></trkpt>
<trkpt lat="50.002511" lon="4.164125"><time>2026-05-03T09:36:35Z</time></trkpt>
</trkseg></trk>
<trk>
<name>hmmbw18</name>
<cmt>v</cmt>
<desc>Beauwelz Chemin n°18 </desc>
<link href="https://chemins.be/beauwelz/chemin/18"/><trkseg>
<trkpt lat="50.002511" lon="4.164125"><time>2026-05-03T09:36:35Z</time></trkpt>
<trkpt lat="50.002501" lon="4.164717"><time>2026-05-03T09:46:35Z</time></trkpt>
<trkpt lat="50.002075" lon="4.165180"><time>2026-05-03T09:56:35Z</time></trkpt>
<trkpt lat="50.002392" lon="4.166700"><time>2026-05-03T10:06:35Z</time></trkpt>
</trkseg>
</trk>
<trk>
<name>hmmbw2</name>
<cmt>v</cmt>
<desc>Beauwelz Chemin n°2 Rue des Bois</desc>
<link href="https://chemins.be/beauwelz/chemin/2"/><trkseg>
<trkpt lat="50.003460" lon="4.160295"><time>2026-05-03T09:16:35Z</time></trkpt>
<trkpt lat="50.003588" lon="4.160892"><time>2026-05-03T09:26:35Z</time></trkpt>
<trkpt lat="50.003839" lon="4.161484"><time>2026-05-03T09:36:35Z</time></trkpt>
</trkseg></trk>
<trk>
<name>hmmbw2</name>
<cmt>r</cmt>
<desc>Beauwelz Chemin n°2 Rue des Bois</desc>
<link href="https://chemins.be/beauwelz/chemin/2"/><trkseg>
<trkpt lat="50.003839" lon="4.161484"><time>2026-05-03T09:36:35Z</time></trkpt>
<trkpt lat="50.003961" lon="4.161386"><time>2026-05-03T09:46:35Z</time></trkpt>
</trkseg></trk>
<trk>
<name>hmmbw2</name>
<cmt>v</cmt>
<desc>Beauwelz Chemin n°2 Rue des Bois</desc>
<link href="https://chemins.be/beauwelz/chemin/2"/><trkseg>
<trkpt lat="50.003961" lon="4.161386"><time>2026-05-03T09:46:35Z</time></trkpt>
<trkpt lat="50.004218" lon="4.162337"><time>2026-05-03T09:56:35Z</time></trkpt>
<trkpt lat="50.004685" lon="4.162913"><time>2026-05-03T10:06:35Z</time></trkpt>
</trkseg>
</trk>
<trk>
<name>hmmbw20</name>
<cmt>q</cmt>
<desc>Beauwelz Chemin n°20 </desc>
<link href="https://chemins.be/beauwelz/chemin/20"/><trkseg>
<trkpt lat="50.014222" lon="4.160738"><time>2026-05-03T09:16:35Z</time></trkpt>
<trkpt lat="50.015266" lon="4.161864"><time>2026-05-03T09:26:35Z</time></trkpt>
<trkpt lat="50.016154" lon="4.162702"><time>2026-05-03T09:36:35Z</time></trkpt>
</trkseg>
</trk>
<trk>
<name>hmmbw21</name>
<cmt>v</cmt>
<desc>Beauwelz Chemin n°21 </desc>
<link href="https://chemins.be/beauwelz/chemin/21"/><trkseg>
<trkpt lat="50.011925" lon="4.156614"><time>2026-05-03T09:16:35Z</time></trkpt>
<trkpt lat="50.011663" lon="4.154790"><time>2026-05-03T09:26:35Z</time></trkpt>
<trkpt lat="50.011262" lon="4.153775"><time>2026-05-03T09:36:35Z</time></trkpt>
</trkseg>
</trk>
<trk>
<name>hmmbw22</name>
<cmt>d</cmt>
<desc>Beauwelz Chemin n°22 </desc>
<link href="https://chemins.be/beauwelz/chemin/22"/><trkseg>
<trkpt lat="50.000707" lon="4.155152"><time>2026-05-03T09:16:35Z</time></trkpt>
<trkpt lat="50.000507" lon="4.153221"><time>2026-05-03T09:26:35Z</time></trkpt>
</trkseg>
</trk>
<trk>
<name>hmmbw23</name>
<cmt>r</cmt>
<desc>Beauwelz Chemin n°23 </desc>
<link href="https://chemins.be/beauwelz/chemin/23"/><trkseg>
<trkpt lat="50.000463" lon="4.155562"><time>2026-05-03T09:16:35Z</time></trkpt>
<trkpt lat="50.000886" lon="4.154969"><time>2026-05-03T09:26:35Z</time></trkpt>
<trkpt lat="50.001603" lon="4.154132"><time>2026-05-03T09:36:35Z</time></trkpt>
<trkpt lat="50.002004" lon="4.153196"><time>2026-05-03T09:46:35Z</time></trkpt>
</trkseg></trk>
<trk>
<name>hmmbw23</name>
<cmt>q</cmt>
<desc>Beauwelz Chemin n°23 </desc>
<link href="https://chemins.be/beauwelz/chemin/23"/><trkseg>
<trkpt lat="50.002004" lon="4.153196"><time>2026-05-03T09:46:35Z</time></trkpt>
<trkpt lat="50.002140" lon="4.152967"><time>2026-05-03T09:56:35Z</time></trkpt>
</trkseg>
</trk>
<trk>
<name>hmmbw24</name>
<cmt>d</cmt>
<desc>Beauwelz Chemin n°24 </desc>
<link href="https://chemins.be/beauwelz/chemin/24"/><trkseg>
<trkpt lat="50.016065" lon="4.168563"><time>2026-05-03T09:16:35Z</time></trkpt>
<trkpt lat="50.016851" lon="4.168359"><time>2026-05-03T09:26:35Z</time></trkpt>
<trkpt lat="50.017375" lon="4.168345"><time>2026-05-03T09:36:35Z</time></trkpt>
</trkseg>
</trk>
<trk>
<name>hmmbw25</name>
<cmt>v</cmt>
<desc>Beauwelz Chemin n°25 </desc>
<link href="https://chemins.be/beauwelz/chemin/25"/><trkseg>
<trkpt lat="49.997154" lon="4.166686"><time>2026-05-03T09:16:35Z</time></trkpt>
<trkpt lat="49.996936" lon="4.165609"><time>2026-05-03T09:26:35Z</time></trkpt>
<trkpt lat="49.996586" lon="4.164826"><time>2026-05-03T09:36:35Z</time></trkpt>
</trkseg>
</trk>
<trk>
<name>hmmbw27</name>
<cmt>v</cmt>
<desc>Beauwelz Chemin n°27 </desc>
<link href="https://chemins.be/beauwelz/chemin/27"/><trkseg>
<trkpt lat="49.997824" lon="4.169650"><time>2026-05-03T09:16:35Z</time></trkpt>
<trkpt lat="49.997990" lon="4.171292"><time>2026-05-03T09:26:35Z</time></trkpt>
</trkseg>
</trk>
<trk>
<name>hmmbw28</name>
<cmt>q</cmt>
<desc>Beauwelz Chemin n°28 </desc>
<link href="https://chemins.be/beauwelz/chemin/28"/><trkseg>
<trkpt lat="50.002822" lon="4.166433"><time>2026-05-03T09:16:35Z</time></trkpt>
<trkpt lat="50.003057" lon="4.167330"><time>2026-05-03T09:26:35Z</time></trkpt>
<trkpt lat="50.003389" lon="4.167584"><time>2026-05-03T09:36:35Z</time></trkpt>
</trkseg>
</trk>
<trk>
<name>hmmbw31</name>
<cmt>v</cmt>
<desc>Beauwelz Chemin n°31 </desc>
<link href="https://chemins.be/beauwelz/chemin/31"/><trkseg>
<trkpt lat="50.010777" lon="4.147932"><time>2026-05-03T09:16:35Z</time></trkpt>
<trkpt lat="50.010515" lon="4.148801"><time>2026-05-03T09:26:35Z</time></trkpt>
<trkpt lat="50.009751" lon="4.148210"><time>2026-05-03T09:36:35Z</time></trkpt>
</trkseg>
</trk>
<trk>
<name>hmmbw32</name>
<cmt>q</cmt>
<desc>Beauwelz Sentier n°32 </desc>
<link href="https://chemins.be/beauwelz/sentier/32"/><trkseg>
<trkpt lat="50.015625" lon="4.156521"><time>2026-05-03T09:16:35Z</time></trkpt>
<trkpt lat="50.015469" lon="4.154797"><time>2026-05-03T09:26:35Z</time></trkpt>
</trkseg>
</trk>
<trk>
<name>hmmbw33</name>
<cmt>q</cmt>
<desc>Beauwelz Sentier n°33 </desc>
<link href="https://chemins.be/beauwelz/sentier/33"/><trkseg>
<trkpt lat="50.015023" lon="4.154904"><time>2026-05-03T09:16:35Z</time></trkpt>
<trkpt lat="50.014324" lon="4.153410"><time>2026-05-03T09:26:35Z</time></trkpt>
</trkseg>
</trk>
<trk>
<name>hmmbw34</name>
<cmt>q</cmt>
<desc>Beauwelz Sentier n°34 </desc>
<link href="https://chemins.be/beauwelz/sentier/34"/><trkseg>
<trkpt lat="50.014287" lon="4.153367"><time>2026-05-03T09:16:35Z</time></trkpt>
<trkpt lat="50.013001" lon="4.153216"><time>2026-05-03T09:26:35Z</time></trkpt>
<trkpt lat="50.012394" lon="4.152551"><time>2026-05-03T09:36:35Z</time></trkpt>
<trkpt lat="50.011838" lon="4.151242"><time>2026-05-03T09:46:35Z</time></trkpt>
<trkpt lat="50.010540" lon="4.149874"><time>2026-05-03T09:56:35Z</time></trkpt>
<trkpt lat="50.010446" lon="4.148797"><time>2026-05-03T10:06:35Z</time></trkpt>
</trkseg>
</trk>
<trk>
<name>hmmbw35</name>
<cmt>q</cmt>
<desc>Beauwelz Sentier n°35 </desc>
<link href="https://chemins.be/beauwelz/sentier/35"/><trkseg>
<trkpt lat="50.012534" lon="4.150227"><time>2026-05-03T09:16:35Z</time></trkpt>
<trkpt lat="50.012557" lon="4.148596"><time>2026-05-03T09:26:35Z</time></trkpt>
<trkpt lat="50.013150" lon="4.146908"><time>2026-05-03T09:36:35Z</time></trkpt>
</trkseg>
</trk>
<trk>
<name>hmmbw36</name>
<cmt>q</cmt>
<desc>Beauwelz Sentier n°36 </desc>
<link href="https://chemins.be/beauwelz/sentier/36"/><trkseg>
<trkpt lat="50.006579" lon="4.160619"><time>2026-05-03T09:16:35Z</time></trkpt>
<trkpt lat="50.008606" lon="4.156457"><time>2026-05-03T09:26:35Z</time></trkpt>
<trkpt lat="50.009673" lon="4.155141"><time>2026-05-03T09:36:35Z</time></trkpt>
<trkpt lat="50.009670" lon="4.154416"><time>2026-05-03T09:46:35Z</time></trkpt>
<trkpt lat="50.009659" lon="4.151915"><time>2026-05-03T09:56:35Z</time></trkpt>
<trkpt lat="50.010495" lon="4.149883"><time>2026-05-03T10:06:35Z</time></trkpt>
</trkseg>
</trk>
<trk>
<name>hmmbw37</name>
<cmt>q</cmt>
<desc>Beauwelz Sentier n°37 </desc>
<link href="https://chemins.be/beauwelz/sentier/37"/><trkseg>
<trkpt lat="50.016197" lon="4.154533"><time>2026-05-03T09:16:35Z</time></trkpt>
<trkpt lat="50.016009" lon="4.153345"><time>2026-05-03T09:26:35Z</time></trkpt>
<trkpt lat="50.016404" lon="4.151478"><time>2026-05-03T09:36:35Z</time></trkpt>
<trkpt lat="50.016294" lon="4.149612"><time>2026-05-03T09:46:35Z</time></trkpt>
</trkseg>
</trk>
<trk>
<name>hmmbw38</name>
<cmt>q</cmt>
<desc>Beauwelz Sentier n°38 </desc>
<link href="https://chemins.be/beauwelz/sentier/38"/><trkseg>
<trkpt lat="50.014524" lon="4.159808"><time>2026-05-03T09:16:35Z</time></trkpt>
<trkpt lat="50.013563" lon="4.159529"><time>2026-05-03T09:26:35Z</time></trkpt>
<trkpt lat="50.012506" lon="4.158445"><time>2026-05-03T09:36:35Z</time></trkpt>
</trkseg>
</trk>
<trk>
<name>hmmbw39</name>
<cmt>q</cmt>
<desc>Beauwelz Sentier n°39 </desc>
<link href="https://chemins.be/beauwelz/sentier/39"/><trkseg>
<trkpt lat="50.016162" lon="4.162727"><time>2026-05-03T09:16:35Z</time></trkpt>
<trkpt lat="50.017817" lon="4.165470"><time>2026-05-03T09:26:35Z</time></trkpt>
<trkpt lat="50.017897" lon="4.166421"><time>2026-05-03T09:36:35Z</time></trkpt>
<trkpt lat="50.017927" lon="4.166578"><time>2026-05-03T09:46:35Z</time></trkpt>
<trkpt lat="50.018111" lon="4.166675"><time>2026-05-03T09:56:35Z</time></trkpt>
</trkseg>
</trk>
<trk>
<name>hmmbw3bis</name>
<cmt>r</cmt>
<desc>Beauwelz Chemin n°3bis </desc>
<link href="https://chemins.be/beauwelz/chemin/3bis"/><trkseg>
<trkpt lat="50.008872" lon="4.145818"><time>2026-05-03T09:16:35Z</time></trkpt>
<trkpt lat="50.008440" lon="4.145986"><time>2026-05-03T09:26:35Z</time></trkpt>
</trkseg>
</trk>
<trk>
<name>hmmbw40</name>
<cmt>q</cmt>
<desc>Beauwelz Sentier n°40 </desc>
<link href="https://chemins.be/beauwelz/sentier/40"/><trkseg>
<trkpt lat="50.016036" lon="4.167944"><time>2026-05-03T09:16:35Z</time></trkpt>
<trkpt lat="50.017461" lon="4.166177"><time>2026-05-03T09:26:35Z</time></trkpt>
<trkpt lat="50.017916" lon="4.166420"><time>2026-05-03T09:36:35Z</time></trkpt>
</trkseg>
</trk>
<trk>
<name>hmmbw41</name>
<cmt>q</cmt>
<desc>Beauwelz Sentier n°41 </desc>
<link href="https://chemins.be/beauwelz/sentier/41"/><trkseg>
<trkpt lat="50.013924" lon="4.156572"><time>2026-05-03T09:16:35Z</time></trkpt>
<trkpt lat="50.013892" lon="4.158063"><time>2026-05-03T09:26:35Z</time></trkpt>
<trkpt lat="50.014037" lon="4.159608"><time>2026-05-03T09:36:35Z</time></trkpt>
</trkseg>
</trk>
<trk>
<name>hmmbw42</name>
<cmt>q</cmt>
<desc>Beauwelz Sentier n°42 </desc>
<link href="https://chemins.be/beauwelz/sentier/42"/><trkseg>
<trkpt lat="50.009130" lon="4.159848"><time>2026-05-03T09:16:35Z</time></trkpt>
<trkpt lat="50.009441" lon="4.160297"><time>2026-05-03T09:26:35Z</time></trkpt>
<trkpt lat="50.009992" lon="4.162236"><time>2026-05-03T09:36:35Z</time></trkpt>
<trkpt lat="50.010736" lon="4.163782"><time>2026-05-03T09:46:35Z</time></trkpt>
<trkpt lat="50.010792" lon="4.164890"><time>2026-05-03T09:56:35Z</time></trkpt>
</trkseg>
</trk>
<trk>
<name>hmmbw43</name>
<cmt>q</cmt>
<desc>Beauwelz Sentier n°43 </desc>
<link href="https://chemins.be/beauwelz/sentier/43"/><trkseg>
<trkpt lat="50.012950" lon="4.153267"><time>2026-05-03T09:16:35Z</time></trkpt>
<trkpt lat="50.011217" lon="4.153753"><time>2026-05-03T09:26:35Z</time></trkpt>
<trkpt lat="50.009691" lon="4.154425"><time>2026-05-03T09:36:35Z</time></trkpt>
<trkpt lat="50.007089" lon="4.154055"><time>2026-05-03T09:46:35Z</time></trkpt>
<trkpt lat="50.005618" lon="4.152825"><time>2026-05-03T09:56:35Z</time></trkpt>
<trkpt lat="50.002146" lon="4.152971"><time>2026-05-03T10:06:35Z</time></trkpt>
</trkseg>
</trk>
<trk>
<name>hmmbw44</name>
<cmt>q</cmt>
<desc>Beauwelz Sentier n°44 </desc>
<link href="https://chemins.be/beauwelz/sentier/44"/><trkseg>
<trkpt lat="50.008933" lon="4.157473"><time>2026-05-03T09:16:35Z</time></trkpt>
<trkpt lat="50.008361" lon="4.155889"><time>2026-05-03T09:26:35Z</time></trkpt>
<trkpt lat="50.007190" lon="4.154170"><time>2026-05-03T09:36:35Z</time></trkpt>
<trkpt lat="50.005649" lon="4.152828"><time>2026-05-03T09:46:35Z</time></trkpt>
<trkpt lat="50.002832" lon="4.147789"><time>2026-05-03T09:56:35Z</time></trkpt>
</trkseg>
</trk>
<trk>
<name>hmmbw45</name>
<cmt>q</cmt>
<desc>Beauwelz Sentier n°45 </desc>
<link href="https://chemins.be/beauwelz/sentier/45"/><trkseg>
<trkpt lat="50.002123" lon="4.153131"><time>2026-05-03T09:16:35Z</time></trkpt>
<trkpt lat="50.002587" lon="4.158789"><time>2026-05-03T09:26:35Z</time></trkpt>
</trkseg>
</trk>
<trk>
<name>hmmbw46</name>
<cmt>q</cmt>
<desc>Beauwelz Sentier n°46 </desc>
<link href="https://chemins.be/beauwelz/sentier/46"/><trkseg>
<trkpt lat="49.999355" lon="4.168721"><time>2026-05-03T09:16:35Z</time></trkpt>
<trkpt lat="50.000615" lon="4.170080"><time>2026-05-03T09:26:35Z</time></trkpt>
<trkpt lat="50.001608" lon="4.170424"><time>2026-05-03T09:36:35Z</time></trkpt>
<trkpt lat="50.005387" lon="4.168965"><time>2026-05-03T09:46:35Z</time></trkpt>
</trkseg></trk>
<trk>
<name>hmmbw46</name>
<cmt>v</cmt>
<desc>Beauwelz Sentier n°46 </desc>
<link href="https://chemins.be/beauwelz/sentier/46"/><trkseg>
<trkpt lat="50.005387" lon="4.168965"><time>2026-05-03T09:46:35Z</time></trkpt>
<trkpt lat="50.005883" lon="4.169251"><time>2026-05-03T09:56:35Z</time></trkpt>
</trkseg></trk>
<trk>
<name>hmmbw46</name>
<cmt>q</cmt>
<desc>Beauwelz Sentier n°46 </desc>
<link href="https://chemins.be/beauwelz/sentier/46"/><trkseg>
<trkpt lat="50.005883" lon="4.169251"><time>2026-05-03T09:56:35Z</time></trkpt>
<trkpt lat="50.009914" lon="4.175461"><time>2026-05-03T10:06:35Z</time></trkpt>
</trkseg>
</trk>
<trk>
<name>hmmbw47</name>
<cmt>q</cmt>
<desc>Beauwelz Sentier n°47 </desc>
<link href="https://chemins.be/beauwelz/sentier/47"/><trkseg>
<trkpt lat="49.997387" lon="4.167815"><time>2026-05-03T09:16:35Z</time></trkpt>
<trkpt lat="49.995930" lon="4.167750"><time>2026-05-03T09:26:35Z</time></trkpt>
</trkseg>
</trk>
<trk>
<name>hmmbw48</name>
<cmt>q</cmt>
<desc>Beauwelz Sentier n°48 </desc>
<link href="https://chemins.be/beauwelz/sentier/48"/><trkseg>
<trkpt lat="49.999996" lon="4.167600"><time>2026-05-03T09:16:35Z</time></trkpt>
<trkpt lat="49.998616" lon="4.167958"><time>2026-05-03T09:26:35Z</time></trkpt>
<trkpt lat="49.997550" lon="4.168430"><time>2026-05-03T09:36:35Z</time></trkpt>
</trkseg>
</trk>
<trk>
<name>hmmbw49</name>
<cmt>q</cmt>
<desc>Beauwelz Sentier n°49 </desc>
<link href="https://chemins.be/beauwelz/sentier/49"/><trkseg>
<trkpt lat="49.996472" lon="4.164727"><time>2026-05-03T09:16:35Z</time></trkpt>
<trkpt lat="49.991432" lon="4.164698"><time>2026-05-03T09:26:35Z</time></trkpt>
</trkseg>
</trk>
<trk>
<name>hmmbw50</name>
<cmt>q</cmt>
<desc>Beauwelz Sentier n°50 </desc>
<link href="https://chemins.be/beauwelz/sentier/50"/><trkseg>
<trkpt lat="49.996564" lon="4.164775"><time>2026-05-03T09:16:35Z</time></trkpt>
<trkpt lat="49.994582" lon="4.163137"><time>2026-05-03T09:26:35Z</time></trkpt>
<trkpt lat="49.994072" lon="4.161792"><time>2026-05-03T09:36:35Z</time></trkpt>
<trkpt lat="49.991741" lon="4.160097"><time>2026-05-03T09:46:35Z</time></trkpt>
<trkpt lat="49.990158" lon="4.159583"><time>2026-05-03T09:56:35Z</time></trkpt>
</trkseg>
</trk>
<trk>
<name>hmmbw51</name>
<cmt>v</cmt>
<desc>Beauwelz Sentier n°51 </desc>
<link href="https://chemins.be/beauwelz/sentier/51"/><trkseg>
<trkpt lat="50.006611" lon="4.165905"><time>2026-05-03T09:16:35Z</time></trkpt>
<trkpt lat="50.005761" lon="4.165769"><time>2026-05-03T09:26:35Z</time></trkpt>
</trkseg></trk>
<trk>
<name>hmmbw51</name>
<cmt>q</cmt>
<desc>Beauwelz Sentier n°51 </desc>
<link href="https://chemins.be/beauwelz/sentier/51"/><trkseg>
<trkpt lat="50.005761" lon="4.165769"><time>2026-05-03T09:26:35Z</time></trkpt>
<trkpt lat="50.005074" lon="4.165211"><time>2026-05-03T09:36:35Z</time></trkpt>
<trkpt lat="50.004720" lon="4.165598"><time>2026-05-03T09:46:35Z</time></trkpt>
<trkpt lat="50.004284" lon="4.165581"><time>2026-05-03T09:56:35Z</time></trkpt>
<trkpt lat="50.004262" lon="4.165452"><time>2026-05-03T10:06:35Z</time></trkpt>
<trkpt lat="50.004105" lon="4.165434"><time>2026-05-03T10:16:35Z</time></trkpt>
<trkpt lat="50.003860" lon="4.165570"><time>2026-05-03T10:26:35Z</time></trkpt>
</trkseg>
</trk>
<trk>
<name>hmmbw52</name>
<cmt>q</cmt>
<desc>Beauwelz Sentier n°52 </desc>
<link href="https://chemins.be/beauwelz/sentier/52"/><trkseg>
<trkpt lat="50.013937" lon="4.158207"><time>2026-05-03T09:16:35Z</time></trkpt>
<trkpt lat="50.012199" lon="4.158536"><time>2026-05-03T09:26:35Z</time></trkpt>
<trkpt lat="50.009842" lon="4.160220"><time>2026-05-03T09:36:35Z</time></trkpt>
<trkpt lat="50.009408" lon="4.160331"><time>2026-05-03T09:46:35Z</time></trkpt>
<trkpt lat="50.008905" lon="4.161239"><time>2026-05-03T09:56:35Z</time></trkpt>
<trkpt lat="50.008385" lon="4.164472"><time>2026-05-03T10:06:35Z</time></trkpt>
</trkseg>
</trk>
<trk>
<name>hmmbw53</name>
<cmt>q</cmt>
<desc>Beauwelz Sentier n°53 </desc>
<link href="https://chemins.be/beauwelz/sentier/53"/><trkseg>
<trkpt lat="50.008611" lon="4.146000"><time>2026-05-03T09:16:35Z</time></trkpt>
<trkpt lat="50.008620" lon="4.146422"><time>2026-05-03T09:26:35Z</time></trkpt>
<trkpt lat="50.009199" lon="4.147995"><time>2026-05-03T09:36:35Z</time></trkpt>
<trkpt lat="50.009746" lon="4.148231"><time>2026-05-03T09:46:35Z</time></trkpt>
</trkseg>
</trk>
<trk>
<name>hmmbw54</name>
<cmt>q</cmt>
<desc>Beauwelz Sentier n°54 </desc>
<link href="https://chemins.be/beauwelz/sentier/54"/><trkseg>
<trkpt lat="49.991387" lon="4.173713"><time>2026-05-03T09:16:35Z</time></trkpt>
<trkpt lat="49.990598" lon="4.174421"><time>2026-05-03T09:26:35Z</time></trkpt>
</trkseg>
</trk>
<trk>
<name>hmmbw7</name>
<cmt>v</cmt>
<desc>Beauwelz Chemin n°7 </desc>
<link href="https://chemins.be/beauwelz/chemin/7"/><trkseg>
<trkpt lat="49.995811" lon="4.167920"><time>2026-05-03T09:16:35Z</time></trkpt>
<trkpt lat="49.993770" lon="4.168192"><time>2026-05-03T09:26:35Z</time></trkpt>
</trkseg></trk>
<trk>
<name>hmmbw7</name>
<cmt>q</cmt>
<desc>Beauwelz Chemin n°7 </desc>
<link href="https://chemins.be/beauwelz/chemin/7"/><trkseg>
<trkpt lat="49.993770" lon="4.168192"><time>2026-05-03T09:26:35Z</time></trkpt>
<trkpt lat="49.992574" lon="4.165674"><time>2026-05-03T09:36:35Z</time></trkpt>
</trkseg>
</trk>
<trk>
<name>hmmbw9</name>
<cmt>v</cmt>
<desc>Beauwelz Chemin n°9 Le Surginet</desc>
<link href="https://chemins.be/beauwelz/chemin/9"/><trkseg>
<trkpt lat="50.005224" lon="4.163052"><time>2026-05-03T09:16:35Z</time></trkpt>
<trkpt lat="50.005027" lon="4.163402"><time>2026-05-03T09:26:35Z</time></trkpt>
<trkpt lat="50.004696" lon="4.164324"><time>2026-05-03T09:36:35Z</time></trkpt>
<trkpt lat="50.004544" lon="4.164590"><time>2026-05-03T09:46:35Z</time></trkpt>
<trkpt lat="50.003817" lon="4.165597"><time>2026-05-03T09:56:35Z</time></trkpt>
<trkpt lat="50.003548" lon="4.165919"><time>2026-05-03T10:06:35Z</time></trkpt>
<trkpt lat="50.002839" lon="4.166452"><time>2026-05-03T10:16:35Z</time></trkpt>
<trkpt lat="50.000988" lon="4.167520"><time>2026-05-03T10:26:35Z</time></trkpt>
<trkpt lat="50.000117" lon="4.168081"><time>2026-05-03T10:36:35Z</time></trkpt>
</trkseg>
</trk>
<trk>
<name>hmmbwi1</name>
<cmt>v</cmt>
<desc>Beauwelz Sentier n°i1 </desc>
<link href="https://chemins.be/beauwelz/sentier/i1"/><trkseg>
<trkpt lat="49.995803" lon="4.167977"><time>2026-05-03T09:16:35Z</time></trkpt>
<trkpt lat="49.994054" lon="4.181592"><time>2026-05-03T09:26:35Z</time></trkpt>
</trkseg>
</trk>
<trk>
<name>hmmbwi2</name>
<cmt>v</cmt>
<desc>Beauwelz Sentier n°i2 </desc>
<link href="https://chemins.be/beauwelz/sentier/i2"/><trkseg>
<trkpt lat="49.988405" lon="4.169609"><time>2026-05-03T09:16:35Z</time></trkpt>
<trkpt lat="49.988566" lon="4.169315"><time>2026-05-03T09:26:35Z</time></trkpt>
<trkpt lat="49.993710" lon="4.168221"><time>2026-05-03T09:36:35Z</time></trkpt>
</trkseg>
</trk>
<trk>
<name>hmmbwi3</name>
<cmt>v</cmt>
<desc>Beauwelz Sentier n°i3 </desc>
<link href="https://chemins.be/beauwelz/sentier/i3"/><trkseg>
<trkpt lat="49.988405" lon="4.169609"><time>2026-05-03T09:16:35Z</time></trkpt>
<trkpt lat="49.988476" lon="4.169232"><time>2026-05-03T09:26:35Z</time></trkpt>
<trkpt lat="49.991275" lon="4.165371"><time>2026-05-03T09:36:35Z</time></trkpt>
<trkpt lat="49.991355" lon="4.164883"><time>2026-05-03T09:46:35Z</time></trkpt>
</trkseg>
</trk>
<trk>
<name>hmmbwi4</name>
<cmt>v</cmt>
<desc>Beauwelz Sentier n°i4 </desc>
<link href="https://chemins.be/beauwelz/sentier/i4"/><trkseg>
<trkpt lat="50.005873" lon="4.169197"><time>2026-05-03T09:16:35Z</time></trkpt>
<trkpt lat="50.009676" lon="4.169102"><time>2026-05-03T09:26:35Z</time></trkpt>
<trkpt lat="50.011050" lon="4.168245"><time>2026-05-03T09:36:35Z</time></trkpt>
</trkseg>
</trk>
<trk>
<name>hmmbwi5</name>
<cmt>q</cmt>
<desc>Beauwelz Chemin n°i5 </desc>
<link href="https://chemins.be/beauwelz/chemin/i5"/><trkseg>
<trkpt lat="50.009571" lon="4.159336"><time>2026-05-03T09:16:35Z</time></trkpt>
<trkpt lat="50.009534" lon="4.159665"><time>2026-05-03T09:26:35Z</time></trkpt>
<trkpt lat="50.009661" lon="4.160298"><time>2026-05-03T09:36:35Z</time></trkpt>
</trkseg>
</trk>
</gpx>